Starlink 32571

operational
NORAD ID: 62055 Int'l Des: 2024-216 Owner: SPXS Country: US Constellation: starlink
LEOCIRCULAR

About Starlink 32571

Description loading...

Live Position

Loading 3D Globe...

Upcoming Passes

Altitude History

Altitude vs Time

uPlot chart will show altitude changes over time

Two-Line Element Set

1 62055U 24216Z 25259.44711935 .00060767 00000-0 21994-2 0 9993
2 62055 42.9966 159.8180 0000487 208.2100 151.8725 15.27583065 47338
Epoch: Sep 16, 2025 • Age: 22 hours

Current Status

Altitude 483.0 km
Velocity 7.63 km/s
Sub-Earth Point 25.76°N, 55.96°E
Launch Date Nov 21, 2024
Age 0.8 years
Type internet

Technical Details

Classification Payload
Mass 730.00 kg
Dry Mass 700.00 kg
Total Mass 730.00 kg
Length 0.30 m
Diameter 4.10 m
Span 29.00 m
Shape Box + pan
Manufacturer SPXS
Bus Type Starlink V2M
Phase Status In Orbit
Owner/State SPXS/US

Large Constellations

Loading constellations...